This is the latest recevied weather packets stored in our database for station/object K1FFK-1. If no packets are shown the sender has not sent any weather packets the latest 10 day(s).
| Time | Temp. | Humidity | Pressure | Rain* | Wind** | Luminosity | Snow |
|---|---|---|---|---|---|---|---|
| 1777782094 | -2.78° C | 87% | 1012 hPa | 0 mm | - | - | - |
| 1777781493 | -2.78° C | 86% | 1012 hPa | 0 mm | - | - | - |
| 1777780893 | -2.78° C | 86% | 1012.2 hPa | 0 mm | - | - | - |
| 1777780294 | -2.22° C | 85% | 1012.2 hPa | 0 mm | - | - | - |
| 1777779694 | -2.22° C | 84% | 1012.2 hPa | 0 mm | - | - | - |
| 1777779093 | -2.22° C | 84% | 1012.1 hPa | 0 mm | - | - | - |
| 1777778493 | -2.22° C | 82% | 1012.2 hPa | 0 mm | - | - | - |
| 1777777894 | -1.67° C | 80% | 1012.3 hPa | 0 mm | - | - | - |
| 1777777294 | -1.67° C | 79% | 1012.4 hPa | 0 mm | - | - | - |
| 1777776694 | -1.67° C | 77% | 1012.5 hPa | 0 mm | - | - | - |
| 1777776093 | -1.67° C | 75% | 1012.6 hPa | 0 mm | - | - | - |
| 1777775493 | -1.67° C | 75% | 1012.6 hPa | 0 mm | - | - | - |
| 1777774895 | -1.11° C | 74% | 1012.6 hPa | 0 mm | - | - | - |
| 1777774293 | -1.11° C | 73% | 1012.6 hPa | 0 mm | - | - | - |
| 1777773694 | -1.11° C | 73% | 1012.6 hPa | 0 mm | - | - | - |
| 1777773093 | -1.11° C | 76% | 1012.8 hPa | 0 mm | - | - | - |
| 1777772496 | -1.11° C | 74% | 1012.8 hPa | 0 mm | - | - | - |
| 1777771893 | -1.11° C | 74% | 1012.8 hPa | 0 mm | - | - | - |
| 1777771295 | -0.56° C | 72% | 1012.5 hPa | 0 mm | - | - | - |
| 1777770694 | -0.56° C | 72% | 1012.5 hPa | 0 mm | - | - | - |
| 1777770094 | -0.56° C | 72% | 1012.8 hPa | 0 mm | - | - | - |
| 1777769494 | -0.56° C | 73% | 1013 hPa | 0 mm | - | - | - |
| 1777768894 | 0° C | 71% | 1013 hPa | 0 mm | - | - | - |
| 1777768294 | 0° C | 72% | 1013 hPa | 0 mm | - | - | - |
| 1777767693 | 0° C | 71% | 1013 hPa | 0 mm | - | - | - |
* Rain latest hour (hover to see other rain measurements)
** Current wind speed in m/s (hover to see current wind gust speed)